This demonstration page uses our WeatherBlox Daily Observations layout. Learn more.

Left ArrowRight Arrow

39.01783, -85.05884

Hourly Observations for October 22, 2020

Temp ( °F °C ) Dew Point ( °F °C ) Humidity (%) Winds ( mph kmh ) Pressure ( in mb ) Visibility ( mi km ) Precip ( " mm )
12:08 am 00:08 Partly Cloudy with Patchy Fog 61 16.1 59 15 93 93 E 3 6 30.16 1021 2 3.21868 0 0
12:19 am 00:19 Mostly Clear with Patchy Fog 62 16.7 60 15.6 93 93 E 3 6 30.16 1021 2.5 4.02335 0 0
12:32 am 00:32 Mostly Clear with Patchy Fog 62 16.7 60 15.6 93 93 ESE 3 6 30.16 1021 3 4.82802 0 0
12:52 am 00:52 Mostly Clear with Patchy Fog 61 16.1 60 15.6 97 97 ESE 3 6 30.14 1021 3 4.82802 0 0
1:04 am 01:04 Clear with Mist and Fog 62 16.7 60 15.6 93 93 ESE 5 7 30.15 1021 4 6.43736 0 0
1:52 am 01:52 Mostly Clear with Light Rain 61 16.1 60 15.6 97 97 ESE 5 7 30.14 1021 3 4.82802 0.001 0.001
2:52 am 02:52 Clear with Mist and Fog 61 16.1 58 14.4 90 90 ESE 3 6 30.13 1020 5 8.0467 0.001 0.001
3:52 am 03:52 Clear with Patchy Fog 59 15 58 14.4 96 96 SSE 3 6 30.13 1020 5 8.0467 0 0
4:52 am 04:52 Clear with Patchy Fog 57 13.9 56 13.3 96 96 SSE 3 6 30.13 1020 7 11.26538 0 0
5:52 am 05:52 Clear 58 14.4 56 13.3 93 93 SSE 6 9 30.14 1021 10 16.0934 0 0
6:52 am 06:52 Mostly Clear with Patchy Fog 58 14.4 55 12.8 90 90 S 6 9 30.15 1021 6 9.65604 0 0
7:52 am 07:52 Partly Cloudy 57 13.9 55 12.8 93 93 S 8 13 30.15 1021 10 16.0934 0 0
8:52 am 08:52 Partly Cloudy 62 16.7 58 14.4 86 86 S 7 11 30.16 1022 10 16.0934 0 0
9:52 am 09:52 Mostly Cloudy 66 18.9 60 15.6 81 81 SSW 9 15 30.18 1022 10 16.0934 0 0
10:52 am 10:52 Mostly Cloudy 70 21.1 61 16.1 73 73 SSW 12 19 30.17 1022 10 16.0934 0 0
11:52 am 11:52 Mostly Sunny 74 23.3 62 16.7 67 67 SSW 9 15 30.16 1022 10 16.0934 0 0
12:52 pm 12:52 Mostly Sunny 77 25 63 17.2 62 62 SSW 9 15 30.14 1021 10 16.0934 0 0
1:52 pm 13:52 Partly Cloudy 79 26.1 63 17.2 58 58 SSW 12 19 30.11 1020 10 16.0934 0 0
2:52 pm 14:52 Partly Cloudy 81 27.2 62 16.7 53 53 SSW 13 20 30.09 1019 10 16.0934 0 0
3:52 pm 15:52 Partly Cloudy 80 26.7 61 16.1 52 52 SSW 12 19 30.07 1018 10 16.0934 0 0
4:52 pm 16:52 Mostly Sunny 80 26.7 59 15 49 49 SSW 8 13 30.06 1018 10 16.0934 0 0
5:52 pm 17:52 Mostly Sunny 77 25 60 15.6 56 56 S 8 13 30.07 1018 10 16.0934 0 0
6:52 pm 18:52 Mostly Clear 73 22.8 60 15.6 64 64 S 6 9 30.07 1018 10 16.0934 0 0
7:52 pm 19:52 Mostly Clear 71 21.7 60 15.6 68 68 SSE 6 9 30.07 1018 10 16.0934 0 0
8:52 pm 20:52 Clear 69 20.6 59 15 70 70 S 7 11 30.07 1018 10 16.0934 0 0
9:52 pm 21:52 Clear 68 20 58 14.4 70 70 S 6 9 30.07 1018 10 16.0934 0 0
10:52 pm 22:52 Clear 67 19.4 58 14.4 73 73 S 6 9 30.06 1018 10 16.0934 0 0
11:52 pm 23:52 Clear 66 18.9 57 13.9 73 73 S 6 9 30.04 1017 10 16.0934 0 0

Powered by AerisWeather